Regional Weather Roundup
Issued by NWS

Home | Current Version | Previous Version | Text Only | Print | Product List | Glossary Off
Versions: 1 2 3 4 5 6 7 8 9 10 11 12 13 14 15 16 17 18 19 20 21 22 23 24 25 26 27 28 29 30 31 32 33 34 35 36 37 38 39 40 41 42 43 44 45 46 47 48 49 50

000
ASUS43 KMPX 290401
RWRMN
WEATHER ROUNDUP FOR MINNESOTA
NATIONAL WEATHER SERVICE TWIN CITIES/CHANHASSEN MN
1100 PM CDT THU JUL 28 2016


NOTE: "FAIR" INDICATES FEW OR NO CLOUDS BELOW 12,000 FEET WITH NO
SIGNIFICANT WEATHER AND/OR OBSTRUCTIONS TO VISIBILITY. N/A MEANS
CURRENT SKY AND/OR WEATHER CONDITIONS ARE NOT AVAILABLE.

MNZ060>063-068>070-290500-
   Twin Cities Metro

CITY           SKY/WX    TMP DP  RH WIND       PRES   REMARKS
TWIN CITIES    PTCLDY    69  57  65 NE7       30.04R
ST PAUL        CLOUDY    68  58  70 NE6       30.05R
CRYSTAL        MOCLDY    68  56  65 NE5       30.04R
BLAINE         PTCLDY    66  59  77 N3        30.05S
LAKEVILLE      MOCLDY    64  59  82 NE3       30.04S
EDEN PRAIRIE   CLEAR     69  59  70 N5        30.04R
LAKEVILLE      MOCLDY    64  59  82 NE3       30.04S
SOUTH ST PAUL  PTCLDY    69  58  68 CALM      30.04S
LAKE ELMO      FAIR      64  59  82 NE7       30.06R
$$
MNZ001>005-007-008-013>017-022>024-027-028-290500-
   Northwest Minnesota

CITY           SKY/WX    TMP DP  RH WIND       PRES   REMARKS
BEMIDJI        CLEAR     57  55  94 CALM      30.09S
HALLOCK        CLEAR     61  55  82 NW3       30.10R
ROSEAU         CLEAR     59  54  82 CALM      30.10S
WARROAD        CLEAR     57  54  88 CALM      30.10S
THIEF RVR FALL CLEAR     62  55  77 CALM      30.11R
CROOKSTON      CLEAR     61  57  88 CALM      30.11R
FOSSTON        CLEAR     55  52  88 CALM      30.11R
DETROIT LAKES  CLEAR     66  59  77 CALM      30.11R
MOORHEAD       CLEAR     63  59  88 N6        30.10R
PARK RAPIDS    CLEAR     66  56  70 N3        30.09R
MAHNOMEN       FAIR      60  57  91 CALM      30.10R
$$
MNZ006-009>011-018-025>026-290500-
   North Central Minnesota

CITY           SKY/WX    TMP DP  RH WIND       PRES   REMARKS
BAUDETTE       CLEAR     59  54  83 CALM      30.09S
FLAG ISLAND    CLEAR     68  57  68 CALM      30.08S
INTL FALLS     CLEAR     54  52  93 CALM      30.09R
WASKISH        PTCLDY    63  55  77 NE6       30.09R
BIG FORK       CLEAR     61  57  88 SE3       30.10R
LONGVILLE      CLEAR     59  57  94 CALM      30.09S
GRAND RAPIDS   PTCLDY    61  54  77 SE5       30.12R
ORR            CLEAR     59  54  82 CALM      30.08R
COOK           CLEAR     61  54  77 CALM      30.11S
WALKER         FAIR      56  54  95 CALM      30.08S
$$
MNZ012-019>021-037-290500-
   Northeast Minnesota

CITY           SKY/WX    TMP DP  RH WIND       PRES   REMARKS
DULUTH         PTCLDY    57  51  80 CALM      30.10S
ELY            CLEAR     55  50  82 CALM      30.12S
HIBBING        CLEAR     52  52 100 CALM      30.11S
EVELETH        PTCLDY    54  52  94 CALM      30.12F
DULUTH HARBOR  CLEAR     63  59  88 NE12      30.10S
TWO HARBORS    CLEAR     59  54  82 N3        30.09S
SILVER BAY     CLEAR     52  52 100 CALM      30.10S
GRAND MARAIS     N/A     56  50  80 NW5       30.10S
G MARAIS ARPRT CLEAR     50  46  87 CALM      30.14S
$$
MNZ029>031-032-039>041-046>048-054>057-064-290500-
   West Central Minnesota

CITY           SKY/WX    TMP DP  RH WIND       PRES   REMARKS
FERGUS FALLS   CLEAR     70  59  68 CALM      30.09R
WHEATON        CLOUDY    68  66  94 CALM      30.09R
MORRIS         CLOUDY    70  64  83 CALM      30.08R
ALEXANDRIA     MOCLDY    65  57  75 SE6       30.11R
ELBOW LAKE     FAIR      66  62  87 E6        30.09R
WADENA         CLEAR     59  57  94 CALM      30.09R
GLENWOOD       CLEAR     64  57  77 CALM      30.10S
APPLETON       CLOUDY    68  61  77 CALM      30.08R
BENSON         CLOUDY    68  55  64 CALM      30.09R
ORTONVILLE     CLOUDY    70  61  73 CALM      30.08S
MADISON        MOCLDY    66  57  72 E3        30.08R
WILLMAR        FAIR      63  59  88 CALM      30.09S
$$
MNZ033>034-036-042>043-049>051-058-059-290500-
   Central Minnesota

CITY           SKY/WX    TMP DP  RH WIND       PRES   REMARKS
ST CLOUD       CLEAR     61  56  83 CALM      30.08R
SAUK CENTRE    MOCLDY    61  57  88 CALM      30.10R
PAYNESVILLE    CLEAR     58  58 100 CALM      30.09R
AITKIN         PTCLDY    57  52  82 CALM      30.08S
PINE RIVER     CLEAR     63  57  82 CALM      30.12R
BRAINERD       CLEAR     60  58  92 CALM      30.09R
STAPLES        CLEAR     63  57  82 SE5       30.09R
LONG PRAIRIE   FAIR      61  57  88 CALM      30.10S
LITTLE FALLS   CLEAR     59  54  82 CALM      30.09R
LITCHFIELD     MOCLDY    64  57  77 N3        30.08S
BUFFALO        CLEAR     65  57  75 N6        30.07R
MAPLE LAKE     CLEAR     64  58  81 N5        30.08R
HUTCHINSON     CLEAR     65  58  79 CALM      30.07S
$$
MNZ037-044-045-052-053-290500-
   East Central Minnesota

CITY           SKY/WX    TMP DP  RH WIND       PRES   REMARKS
PRINCETON      CLEAR     63  57  82 CALM      30.08R
MORA           CLEAR     59  54  82 CALM      30.10R
CAMBRIDGE      CLEAR     64  55  72 CALM      30.06R
RUSH CITY      PTCLDY    60  56  85 N3        30.07S
MOOSE LAKE     CLEAR     59  54  82 NE3       30.07S
HINCKLEY       FAIR      59  55  88 CALM      30.08S
CLOQUET        CLEAR     57  52  82 CALM      30.10S
MCGREGOR       MOCLDY    59  54  82 CALM      30.09S
$$
MNZ071>073-080-081-089-090-097-098-290500-
   Southwest Minnesota

CITY           SKY/WX    TMP DP  RH WIND       PRES   REMARKS
MONTEVIDEO     CLOUDY    64  57  77 CALM      30.10R
GRANITE FALLS  CLEAR     65  59  82 CALM      30.09S
CANBY          PTCLDY    65  58  80 CALM      30.09S
MARSHALL       CLEAR     61  57  87 N3        30.08S
REDWOOD FALLS  CLOUDY    65  57  75 NW3       30.07R
OLIVIA         CLEAR     63  55  77 N5        30.06S
PIPESTONE      PTCLDY    64  55  72 NE3       30.09R
WINDOM         CLOUDY    63  57  82 N5        30.08R
WORTHINGTON    CLOUDY    66  61  84 N7        30.08R
JACKSON        MOCLDY    63  59  88 W3        30.08R
TRACY          CLEAR     62  59  88 N5        30.08S
SLAYTON        PTCLDY    60  57  89 CALM      30.10R
$$
MNZ065>067-074>077-082>085-091>093-290500-
   South Central Minnesota

CITY           SKY/WX    TMP DP  RH WIND       PRES   REMARKS
MANKATO        CLOUDY    70  57  64 E7        30.04S
NEW ULM        CLEAR     64  55  72 CALM      30.06R
ST JAMES       CLEAR     57  55  94 CALM      30.06R
FAIRMONT       PTCLDY    63  61  94 CALM      30.04R
GLENCOE        PTCLDY    64  61  90 N6        30.05S
FARIBAULT      MOCLDY    64  63  94 CALM      30.04S
OWATONNA       PTCLDY    64  61  88 CALM      30.03F
WASECA         PTCLDY    63  61  94 NE3       30.05S
ALBERT LEA     CLOUDY    64  63  94 N5        30.03R
$$
MNZ078>079-086>088-094>096-290500-
   Southeast Minnesota

CITY           SKY/WX    TMP DP  RH WIND       PRES   REMARKS
ROCHESTER      CLOUDY    64  60  87 NE13      30.03S
RED WING       CLOUDY    66  63  88 NE3       30.03S
STANTON        CLOUDY    68  63  83 CALM      30.03S
DODGE CENTER   CLOUDY   N/A N/A N/A NE8       30.03F
WINONA         CLOUDY    64  59  82 E5        30.02S
AUSTIN         CLOUDY    64  59  82 N7        30.01S
PRESTON        CLOUDY    62  59  90 NE10      30.01F
$$
ABBREVIATIONS USED IN REMARKS
   TC - TEMPERATURES IN CELSIUS
  WCI - WIND CHILL INDEX
   HX - HEAT INDEX
  VSB - VISIBILITY
$$




USA.gov is the U.S. government's official web portal to all federal, state and local government web resources and services.